Simultaneous Nadir Overpasses (SNOs) Predictions

Prediction of SNOs between GOES-14 and NPP Satellite Orbit:

Table of predicted SNOs for the next 14.0 days since TLE Epoch: 8/13/2022
Index Date Time (GOES-14) GOES-14 Lat,Lon NPP Lat,Lon Distance(km) Time Diff (sec)
1 08/13/2022 20:18:08 0.44,-104.67 0.80,-102.97 193.44 80
2 08/15/2022 08:39:56 -0.46,-104.44 0.41,-108.23 432.95 80
3 08/16/2022 08:18:33 -0.45,-104.43 -0.64,-103.71 82.76 80
4 08/17/2022 20:40:31 0.46,-104.66 -0.50,-109.03 498.21 80
5 08/18/2022 20:24:27 0.46,-104.66 0.49,-104.49 19.03 80
6 08/21/2022 08:27:30 -0.48,-104.45 -0.27,-105.23 89.02 80
7 08/22/2022 08:06:07 -0.47,-104.44 -1.32,-100.71 426.36 80
8 08/23/2022 20:28:05 0.49,-104.65 0.20,-106.03 155.94 80
9 08/24/2022 20:12:01 0.49,-104.66 1.18,-101.49 361.16 80
10 08/26/2022 08:33:49 -0.50,-104.47 0.01,-106.76 260.70 80
